Essaouira, Morocco

6:49 AM WEST on October 18, 2017 (GMT +0100)
Essaouira

Weather History for GMMI - July, 2013

Change the Weather History Date:

Friday, July 26, 2013

  Actual Average Record
Temperature  
Mean Temperature 64 °F -  
Max Temperature 71 °F 71 °F - ()
Min Temperature 57 °F 63 °F - ()
Degree Days  
Heating Degree Days 1    
Growing Degree Days 14 (Base 50)    
Moisture  
Dew Point 62 °F    
Average Humidity 71    
Maximum Humidity 94    
Minimum Humidity 45    
Precipitation  
Precipitation 0.00 in 0.00 in - ()
Sea Level Pressure  
Sea Level Pressure 29.98 in    
Wind  
Wind Speed 8 mph ()    
Max Wind Speed 13 mph    
Max Gust Speed -    
Visibility 4.0 miles    
Events      
T = Trace of Precipitation, MM = Missing Value Source: Averaged Metar Reports

Daily Weather History Graph

Daily Weather History Graph

Search for Another Location

Airport or City:

Trip Planner

Search our weather history database for the weather conditions in past years. The results will help you decide how hot, cold, wet, or windy it might be!

Date:

Astronomy

Jul. 26, 2013 Rise Set
Actual Time 5:51 AM WET 7:39 PM WET
Civil Twilight 5:24 AM WET 8:06 PM WET
Nautical Twilight 4:52 AM WET 8:38 PM WET
Astronomical Twilight 4:18 AM WET 9:12 PM WET
Moon 10:08 PM WET (7/26) 9:52 AM WET (7/26)
Length of Visible Light 14h 41m
Length of Day
13h 47m
Waning Gibbous, 82% of the Moon is Illuminated
Jul 26
Waning Gibbous
Jul 29
Last Quarter
Aug 6
New
Aug 14
First Quarter
Aug 21
Full

Hourly Weather History & Observations

Time (WET) Temp. Heat Index Dew Point Humidity Pressure Visibility Wind Dir Wind Speed Gust Speed Precip Events Conditions
4:50 AM 60.8 °F - 53.6 °F 77% 30.04 in - NE 12.7 mph - N/A   Unknown
6:00 AM 64 °F - 62 °F 90% 30.00 in - NNE 11.2 mph - -  
7:00 AM 66.2 °F - 62.6 °F 88% 29.98 in 3.1 mi NE 2.3 mph - N/A   Scattered Clouds
8:00 AM 71.6 °F - 62.6 °F 73% 29.98 in 3.7 mi ENE 6.9 mph - N/A   Unknown
9:00 AM 68 °F - 64 °F 85% 30.02 in 5 mi North 6.9 mph - -  
9:00 AM 75.2 °F - 62.6 °F 65% 29.98 in 3.7 mi ENE 5.8 mph - N/A   Unknown
10:00 AM 78.8 °F - 62.6 °F 57% 29.98 in 3.7 mi ENE 4.6 mph - N/A   Unknown
11:00 AM 84.2 °F 84.4 °F 60.8 °F 45% 29.95 in 3.7 mi ENE 4.6 mph - N/A   Unknown
12:00 PM 69 °F - 65 °F 82% 30.02 in 5 mi North 6.9 mph - -  
12:00 PM 80.6 °F 81.8 °F 62.6 °F 54% 29.95 in 3.7 mi North 10.4 mph - N/A   Scattered Clouds
1:00 PM 82.4 °F 82.9 °F 60.8 °F 48% 29.95 in 3.7 mi North 11.5 mph - N/A   Unknown
2:00 PM 80.6 °F 81.8 °F 62.6 °F 54% 29.92 in 3.7 mi North 11.5 mph - N/A   Unknown
3:00 PM 69 °F - 65 °F 83% 29.99 in 4 mi North 11.5 mph - -   Scattered Clouds
3:00 PM 80.6 °F 81.8 °F 62.6 °F 54% 29.92 in 3.7 mi North 11.5 mph - N/A   Unknown
4:00 PM 78.8 °F - 62.6 °F 57% 29.92 in 3.7 mi North 11.5 mph - N/A   Unknown
5:00 PM 78.8 °F - 62.6 °F 57% 29.92 in 3.7 mi North 11.5 mph - N/A   Unknown
6:00 PM 68 °F - 65 °F 89% 29.98 in 4 mi North 9.2 mph - -   Scattered Clouds
6:00 PM 57.2 °F - 55.4 °F 94% 30.30 in 6.2 mi East 5.8 mph - N/A   Mostly Cloudy
7:00 PM 71.6 °F - 62.6 °F 73% 29.92 in 3.7 mi North 11.5 mph - N/A   Unknown
9:00 PM 67 °F - 65 °F 91% 29.96 in - North 13.4 mph - -